DELTA 1 DEB, 7140

Orbit data source: Space-Track

DELTA 1 DEB, 7140 is space debris in SSO originally from a launch on Tue, 06 Nov 1973 UTC launched from the Air Force Western Test Range (AFWTR). Debris objects in space refer to the collection of defunct objects orbiting the Earth. Examples of debris include non-operational satellites, rocket bodies, and fragments generated from explosions, collisions, or faulty payload assembly.

Loading next visibility...
Identifier
7140, 1973-086DE
Orbit
SSO
Country
Flag of USUS
Related business
Manufacturer
Unknown
Mission
Spacecraft
Bus & Motor
Unknown
Mass
Unknown
Launch date (UTC)
1973-11-06 (53 years ago)
Launch vehicle
Unknown
Launch site
Air Force Western Test Range (AFWTR)
Object type
Payload
Rocket body
Debris
Shape & HBR
Unknown shape, 0.1 m
Radar Cross Section
Medium (>0.1 m² and <1 m²)

Expand to show TLE details & history
Last TLE update: 3 days ago

TLE from 3 days ago
0 DELTA 1 DEB
1  7140U 73086DE  26260.92590590 -.00000011  00000-0  27936-3 0  9994
2  7140 102.4347 251.3816 0019876 192.5107 198.1429 12.36339693384113
Epoch: 2026-09-17T22:13Z
TLE epoch observation values (Epoch: 2026-09-17T22:13:18.269Z)
Latitude
29.8402°
Longitude
-86.03173°
Altitude
1,540.488 km
Speed
7.092 km/s
True Right ascension
16h 16m 36s
True Declination
29° 42' 24"
Sunlit
Object was in daylight at epoch
Visualization orbit readout
Latitude
Unknown
Longitude
Unknown
Altitude
Unknown
Speed
Unknown
Apparent Right ascension
Unknown
Apparent Declination
Unknown
Sunlit
N/A
Visualization observer readout
Local Sidereal Time
08:48:10
Azimuth
Unknown
Elevation
Unknown
Doppler factor
Unknown
Orbital elements
Apogee altitude
1,535.461 km
Perigee altitude
1,504.066 km
Semi-major axis
7,897.901 km
Eccentricity
0.00199
Inclination
102.4347°
RAAN
251.3816°
Arg. of periapsis
192.5107°
True anomaly
198.07214°
Mean anomaly
198.1429°
Eccentric anomaly
198.10751°
Mean motion
3.09226 °/min
Orbital period
116.42 mins
BSTAR
0.00027936
Loading maneuver chart data...
Computing Atmospheric mass density...
Loading historical data...
Loading historical data...
Loading historical data...
Loading historical data...
Loading historical data...
Loading historical data...
Loading historical data...

Documentation

Showing up to 5 results
|